This is the latest recevied weather packets stored in our database for station/object KC4JIR. If no packets are shown the sender has not sent any weather packets the latest 10 day(s).
| Time | Temp. | Humidity | Pressure | Rain* | Wind** | Luminosity | Snow |
|---|---|---|---|---|---|---|---|
| 1777402111 | 16.11° C | 99% | 1018.7 hPa | 0 mm | - | 150 W/m² | - |
| 1777401806 | 16.11° C | 99% | 1018.9 hPa | 0 mm | - | 150 W/m² | - |
| 1777401505 | 16.11° C | 99% | 1019.5 hPa | 0 mm | - | 150 W/m² | - |
| 1777401201 | 15.56° C | 99% | 1019.4 hPa | 0 mm | - | 162 W/m² | - |
| 1777400897 | 15.56° C | 99% | 1020.1 hPa | 0 mm | - | 134 W/m² | - |
| 1777400593 | 15.56° C | 99% | 1020.2 hPa | 1.27 mm | - | 138 W/m² | - |
| 1777400291 | 15.56° C | 99% | 1020.2 hPa | 1.27 mm | - | 131 W/m² | - |
| 1777399987 | 15.56° C | 99% | 1019.9 hPa | 3.05 mm | - | 109 W/m² | - |
| 1777399684 | 15° C | 99% | 1020.2 hPa | 3.05 mm | - | 136 W/m² | - |
| 1777399381 | 15° C | 99% | 1020.7 hPa | 3.05 mm | - | 86 W/m² | - |
| 1777399079 | 15° C | 99% | 1021.2 hPa | 4.83 mm | - | 86 W/m² | - |
| 1777398775 | 15° C | 99% | 1020.9 hPa | 1.78 mm | - | 48 W/m² | - |
| 1777398472 | 15° C | 99% | 1021.8 hPa | 0 mm | - | 42 W/m² | - |
| 1777398169 | 15° C | 99% | 1021.6 hPa | 7.87 mm | - | 52 W/m² | - |
| 1777397866 | 15° C | 99% | 1022.2 hPa | 6.1 mm | - | 71 W/m² | - |
| 1777397561 | 15° C | 99% | 1023.1 hPa | 6.1 mm | - | 71 W/m² | - |
| 1777396045 | 14.44° C | 99% | 1022.8 hPa | 0 mm | - | 155 W/m² | - |
| 1777395739 | 14.44° C | 99% | 1023 hPa | 0 mm | - | 155 W/m² | - |
| 1777395435 | 14.44° C | 99% | 1023.3 hPa | 0 mm | - | 139 W/m² | - |
| 1777395134 | 14.44° C | 99% | 1023.5 hPa | 0 mm | - | 42 W/m² | - |
| 1777394830 | 13.89° C | 99% | 1023.7 hPa | 0 mm | - | 119 W/m² | - |
| 1777394526 | 13.89° C | 99% | 1023.7 hPa | 0 mm | - | 119 W/m² | - |
| 1777394223 | 13.89° C | 99% | 1023.7 hPa | 1.27 mm | - | 141 W/m² | - |
| 1777393918 | 13.89° C | 99% | 1024 hPa | 1.27 mm | - | 127 W/m² | - |
| 1777393617 | 13.89° C | 99% | 1024.1 hPa | 3.05 mm | - | 55 W/m² | - |
* Rain latest hour (hover to see other rain measurements)
** Current wind speed in m/s (hover to see current wind gust speed)